Hourly Data Report for May 08, 2021

FISHER BRANCH (AUT)
MANITOBA
Current Station Operator: ECCC - MSC

51°05'00.100" N
97°33'16.200" W
253.00 m
50309J6
71442
WSZ

Download Data

Hourly Data (May 2021)
Hourly Data Report for May 8, 2021
TIME
LST
Temp Definition
°C
Dew Point Definition
°C
Rel Hum Definition
%
Precip. Amount Definition
mm

Wind Dir Definition
10's deg

Wind Spd Definition
km/h
Visibility Definition
km
Stn Press Definition
kPa
Hmdx Definition


Wind Chill Definition


Weather Definition


00:00 -0.9 -5.8 69 0.0 35 9   99.28   -4 LegendNANA
01:00 -1.7 -5.6 75 0.0 34 7   99.29   -4 LegendNANA
02:00 -4.0 -6.9 80 0.0 29 4   99.31   -6 LegendNANA
03:00 -4.3 -6.8 83 0.0 33 9   99.31   -8 LegendNANA
04:00 -3.7 -5.8 85 0.0 36 8   99.31   -7 LegendNANA
05:00 -4.0 -5.8 87 0.0 36 5   99.35   -6 LegendNANA
06:00 -2.5 -4.8 84 0.0 1 6   99.37   -5 LegendNANA
07:00 1.0 -3.5 72 0.0 5 15   99.38     LegendNANA
08:00 4.0 -5.3 51 0.0 4 14   99.38     LegendNANA
09:00 6.3 -6.4 40 0.0 5 19   99.38     LegendNANA
10:00 7.1 -7.0 36 0.0 3 16   99.35     LegendNANA
11:00 9.0 -6.7 32 0.0 4 22   99.32     LegendNANA
12:00 9.4 -9.0 26 0.0 2 21   99.26     LegendNANA
13:00 10.0 -7.7 28 0.0 4 20   99.22     LegendNANA
14:00 10.4 -7.7 27 0.0 4 16   99.19     LegendNANA
15:00 11.2 -8.0 25 0.0 3 21   99.16     LegendNANA
16:00 11.3 -8.7 24 0.0 4 16   99.15     LegendNANA
17:00 11.4 -8.6 24 0.0 4 19   99.13     LegendNANA
18:00 10.7 -7.2 28 0.0 1 21   99.15     LegendNANA
19:00 9.3 -7.8 29 0.0 36 21   99.22     LegendNANA
20:00 6.9 -6.4 38 0.0 35 20   99.28     LegendNANA
21:00 4.4 -6.0 47 0.2 36 12   99.35     LegendNANA
22:00 2.4 -5.8 55 0.0 35 11   99.36     LegendNANA
23:00 -0.1 -6.4 63 0.0 36 9   99.38   -3 LegendNANA

Notes on Data Quality.

Legend

  • E = Estimated
  • M = Missing
  • NA = Not Available*
  • [empty] = Indicates an unobserved value
Date modified: